When you browse on this site, cookies collect data to enhance your experience and personalize the content and advertising you see.
Visit our Privacy Policy to learn more. By continuing to use the site, you agree to this use of cookies and data.
  • en Suisse
  • Liste des pays
  • À 7 jours
  • Température de l'eau
  • Carte satellitaire
  • Carte météo
  • Widgets météo
  • user-avatar
    Se connecter

    Météo par heure à Lubczyna

    Ce jour, 18 Février, Lundi

    Heure Température Précipitation Vent Pression Humidité
    00:00 +5°C° 0 mm 1 m/s 754 mmHg 71%
    01:00 +5°C° 0 mm 1 m/s 754 mmHg 73%
    02:00 +5°C° 0 mm 1 m/s 753 mmHg 75%
    03:00 +4°C° 0 mm 1 m/s 753 mmHg 77%
    04:00 +4°C° 0 mm 1 m/s 753 mmHg 79%
    05:00 +3°C° 0 mm 2 m/s 753 mmHg 79%
    06:00 +2°C° 0 mm 2 m/s 753 mmHg 79%
    07:00 +2°C° 0 mm 2 m/s 753 mmHg 79%
    08:00 +3°C° 0 mm 2 m/s 753 mmHg 74%
    09:00 +6°C° 0 mm 1 m/s 753 mmHg 68%
    10:00 +7°C° 0 mm 1 m/s 753 mmHg 63%
    11:00 +8°C° 0 mm 1 m/s 752 mmHg 57%
    12:00 +9°C° 0 mm 1 m/s 752 mmHg 51%
    13:00 +11°C° 0 mm 1 m/s 752 mmHg 46%
    14:00 +11°C° 0 mm 1 m/s 751 mmHg 48%
    15:00 +10°C° 0 mm 1 m/s 751 mmHg 49%
    16:00 +10°C° 0 mm 1 m/s 751 mmHg 51%
    17:00 +8°C° 0 mm 2 m/s 751 mmHg 55%
    18:00 +7°C° 0 mm 2 m/s 751 mmHg 58%
    19:00 +6°C° 0 mm 2 m/s 750 mmHg 61%
    20:00 +6°C° 0 mm 2 m/s 750 mmHg 65%
    21:00 +5°C° 0 mm 2 m/s 750 mmHg 68%
    22:00 +5°C° 0 mm 2 m/s 750 mmHg 71%
    23:00 +3°C° 0 mm 3 m/s 750 mmHg 73%

    Demain, 19 Février, Mardi

    Heure Température Précipitation Vent Pression Humidité
    00:00 +3°C° 0 mm 3 m/s 750 mmHg 76%
    01:00 +2°C° 0 mm 3 m/s 750 mmHg 78%
    02:00 +2°C° 0 mm 3 m/s 749 mmHg 78%
    03:00 +2°C° 0 mm 3 m/s 749 mmHg 78%
    04:00 +1°C° 0 mm 3 m/s 748 mmHg 79%
    05:00 +1°C° 0 mm 3 m/s 748 mmHg 80%
    06:00 +1°C° 0 mm 3 m/s 748 mmHg 81%
    07:00 +1°C° 0 mm 3 m/s 748 mmHg 82%
    08:00 +1°C° 0 mm 4 m/s 748 mmHg 77%
    09:00 +3°C° 0 mm 4 m/s 748 mmHg 71%
    10:00 +5°C° 0 mm 4 m/s 748 mmHg 65%
    11:00 +6°C° 0 mm 4 m/s 747 mmHg 61%
    12:00 +8°C° 0 mm 4 m/s 747 mmHg 57%
    13:00 +10°C° 0 mm 4 m/s 747 mmHg 54%
    14:00 +10°C° 0 mm 4 m/s 747 mmHg 55%
    15:00 +10°C° 0 mm 4 m/s 746 mmHg 56%
    16:00 +10°C° 0 mm 3 m/s 746 mmHg 57%
    17:00 +8°C° 0 mm 4 m/s 746 mmHg 62%
    18:00 +7°C° 0 mm 4 m/s 746 mmHg 66%
    19:00 +6°C° 0 mm 4 m/s 747 mmHg 71%
    20:00 +5°C° 0.6 mm 4 m/s 747 mmHg 77%
    21:00 +5°C° 0.6 mm 5 m/s 747 mmHg 83%
    22:00 +5°C° 0.6 mm 5 m/s 748 mmHg 89%
    23:00 +5°C° 0.2 mm 5 m/s 748 mmHg 89%

    Après-demain, 20 Février, Mercredi

    Heure Température Précipitation Vent Pression Humidité
    00:00 +4°C° 0.2 mm 4 m/s 748 mmHg 89%
    01:00 +4°C° 0.2 mm 4 m/s 748 mmHg 89%
    02:00 +3°C° 0 mm 4 m/s 749 mmHg 90%
    03:00 +3°C° 0 mm 4 m/s 749 mmHg 91%
    04:00 +1°C° 0 mm 5 m/s 749 mmHg 92%
    05:00 +1°C° 0 mm 5 m/s 749 mmHg 92%
    06:00 +1°C° 0 mm 5 m/s 750 mmHg 93%
    07:00 +1°C° 0 mm 5 m/s 750 mmHg 93%
    08:00 +2°C° 0 mm 5 m/s 750 mmHg 88%
    09:00 +3°C° 0 mm 5 m/s 751 mmHg 84%
    10:00 +3°C° 0 mm 6 m/s 751 mmHg 79%
    11:00 +4°C° 0.1 mm 6 m/s 751 mmHg 74%
    12:00 +5°C° 0.1 mm 6 m/s 751 mmHg 68%
    13:00 +5°C° 0.1 mm 6 m/s 751 mmHg 63%
    14:00 +5°C° 0 mm 6 m/s 751 mmHg 64%
    15:00 +5°C° 0 mm 6 m/s 751 mmHg 64%
    16:00 +5°C° 0 mm 6 m/s 751 mmHg 65%
    17:00 +5°C° 0 mm 5 m/s 752 mmHg 69%
    18:00 +5°C° 0 mm 4 m/s 752 mmHg 74%
    19:00 +4°C° 0 mm 3 m/s 752 mmHg 79%
    20:00 +4°C° 0 mm 3 m/s 753 mmHg 80%
    21:00 +4°C° 0 mm 3 m/s 753 mmHg 81%
    22:00 +4°C° 0 mm 3 m/s 753 mmHg 82%
    23:00 +4°C° 0 mm 3 m/s 753 mmHg 83%

    21 Février, Jeudi

    Heure Température Précipitation Vent Pression Humidité
    00:00 +3°C° 0 mm 3 m/s 753 mmHg 84%
    01:00 +3°C° 0 mm 3 m/s 754 mmHg 85%
    02:00 +3°C° 0 mm 3 m/s 753 mmHg 86%
    03:00 +2°C° 0 mm 3 m/s 753 mmHg 88%
    04:00 +2°C° 0 mm 3 m/s 753 mmHg 89%
    05:00 +2°C° 0 mm 3 m/s 754 mmHg 90%
    06:00 +2°C° 0 mm 3 m/s 754 mmHg 90%
    07:00 +2°C° 0 mm 3 m/s 754 mmHg 91%
    08:00 +2°C° 0.1 mm 3 m/s 754 mmHg 87%
    09:00 +3°C° 0.1 mm 4 m/s 754 mmHg 84%
    10:00 +4°C° 0.1 mm 4 m/s 755 mmHg 80%
    11:00 +5°C° 0 mm 4 m/s 754 mmHg 76%
    12:00 +6°C° 0 mm 4 m/s 754 mmHg 72%
    13:00 +6°C° 0 mm 4 m/s 754 mmHg 68%
    14:00 +7°C° 0 mm 4 m/s 754 mmHg 69%
    15:00 +7°C° 0 mm 4 m/s 754 mmHg 69%
    16:00 +8°C° 0 mm 3 m/s 754 mmHg 70%
    17:00 +7°C° 0.1 mm 3 m/s 754 mmHg 75%
    18:00 +7°C° 0.1 mm 3 m/s 755 mmHg 80%
    19:00 +5°C° 0.1 mm 3 m/s 755 mmHg 86%
    20:00 +5°C° 0.1 mm 3 m/s 755 mmHg 87%
    21:00 +5°C° 0.1 mm 3 m/s 755 mmHg 88%
    22:00 +5°C° 0.1 mm 3 m/s 756 mmHg 90%
    23:00 +5°C° 0 mm 2 m/s 756 mmHg 92%

    22 Février, Vendredi

    Heure Température Précipitation Vent Pression Humidité
    00:00 +5°C° 0 mm 2 m/s 756 mmHg 94%
    01:00 +4°C° 0 mm 2 m/s 756 mmHg 96%
    02:00 +4°C° 0 mm 2 m/s 756 mmHg 96%
    03:00 +5°C° 0 mm 2 m/s 757 mmHg 97%
    04:00 +5°C° 0 mm 2 m/s 757 mmHg 97%
    05:00 +5°C° 0 mm 2 m/s 757 mmHg 97%
    06:00 +5°C° 0 mm 2 m/s 758 mmHg 97%
    07:00 +5°C° 0 mm 2 m/s 759 mmHg 97%
    08:00 +5°C° 0 mm 2 m/s 759 mmHg 95%
    09:00 +4°C° 0 mm 3 m/s 760 mmHg 93%
    10:00 +5°C° 0 mm 3 m/s 761 mmHg 91%
    11:00 +5°C° 0 mm 3 m/s 761 mmHg 88%
    12:00 +7°C° 0 mm 3 m/s 761 mmHg 86%
    13:00 +7°C° 0 mm 3 m/s 762 mmHg 83%
    14:00 +7°C° 0 mm 3 m/s 762 mmHg 82%
    15:00 +7°C° 0 mm 3 m/s 762 mmHg 81%
    16:00 +7°C° 0 mm 3 m/s 763 mmHg 79%
    17:00 +5°C° 0 mm 3 m/s 763 mmHg 78%
    18:00 +6°C° 0 mm 2 m/s 764 mmHg 76%
    19:00 +5°C° 0 mm 2 m/s 764 mmHg 74%
    20:00 +4°C° 0 mm 2 m/s 765 mmHg 69%
    21:00 +4°C° 0 mm 2 m/s 765 mmHg 63%
    22:00 +3°C° 0 mm 2 m/s 765 mmHg 58%
    23:00 +2°C° 0 mm 2 m/s 765 mmHg 57%

    23 Février, Samedi

    Heure Température Précipitation Vent Pression Humidité
    00:00 +2°C° 0 mm 2 m/s 766 mmHg 57%
    01:00 +1°C° 0 mm 2 m/s 766 mmHg 56%
    02:00 +1°C° 0 mm 2 m/s 766 mmHg 56%
    03:00 +2°C° 0 mm 1 m/s 766 mmHg 57%
    04:00 +2°C° 0 mm 1 m/s 766 mmHg 57%
    05:00 +2°C° 0 mm 1 m/s 766 mmHg 56%
    06:00 +2°C° 0 mm 1 m/s 766 mmHg 56%
    07:00 +2°C° 0 mm 1 m/s 766 mmHg 55%
    08:00 +3°C° 0 mm 1 m/s 766 mmHg 52%
    09:00 +4°C° 0 mm 1 m/s 766 mmHg 49%
    10:00 +6°C° 0 mm 1 m/s 766 mmHg 47%
    11:00 +6°C° 0 mm 2 m/s 765 mmHg 50%
    12:00 +7°C° 0 mm 2 m/s 765 mmHg 52%
    13:00 +8°C° 0 mm 3 m/s 765 mmHg 55%
    14:00 +8°C° 0 mm 3 m/s 764 mmHg 61%
    15:00 +8°C° 0 mm 3 m/s 764 mmHg 66%
    16:00 +7°C° 0 mm 4 m/s 763 mmHg 71%
    17:00 +7°C° 0 mm 3 m/s 763 mmHg 77%
    18:00 +5°C° 0 mm 3 m/s 763 mmHg 83%
    19:00 +4°C° 0 mm 3 m/s 763 mmHg 89%
    20:00 +4°C° 0 mm 3 m/s 763 mmHg 90%
    21:00 +4°C° 0 mm 3 m/s 763 mmHg 90%
    22:00 +3°C° 0 mm 3 m/s 763 mmHg 90%
    23:00 +3°C° 0 mm 3 m/s 763 mmHg 91%
    Voir plus